Regional Weather Roundup
Issued by NWS

Home | Current Version | Previous Version | Graphics & Text | Print | Product List | Glossary On
Versions: 1 2 3 4 5 6 7 8 9 10 11 12 13 14 15 16 17 18 19 20 21 22 23 24 25 26 27 28 29 30 31 32 33 34 35 36 37 38 39 40 41 42 43 44 45 46 47 48
000
ASUS45 KSLC 310210
RWRUT

UTAH REGIONAL WEATHER ROUNDUP
NATIONAL WEATHER SERVICE SALT LAKE CITY UT
800 PM MDT SUN AUG 30 2015

UTZ001>011-023>025-310300-

NORTHERN UTAH

CITY           SKY/WX    TMP DP  RH WIND       PRES   REMARKS
BRIGHAM CITY   PTCLDY    83  36  18 S5        29.91R
HILL AFB       MOCLDY    80  41  24 W6        29.95S
LOGAN          CLEAR     81  38  21 W3        29.91S
OGDEN          MOCLDY    81  40  23 W3        29.92S
PROVO AIRPORT  MOCLDY    75  48  38 VRB3      29.93R
SALT LAKE CITY MOCLDY    82  45  27 N3        29.91S
VERNAL         CLOUDY    75  49  39 S5        30.01F
WENDOVER       CLEAR     84  39  20 CALM      29.91S
HEBER CITY     CLOUDY    70  46  43 NW5       30.03R
WEST JORDAN    PTCLDY    77  45  31 NW5       29.95F

$$

UTZ012>022-026-027-310300-

SOUTHERN/CENTRAL UTAH

CITY           SKY/WX    TMP DP  RH WIND       PRES   REMARKS
BLANDING       CLOUDY    62  58  85 SE12      30.23F
BRYCE CANYON   CLOUDY    62  50  64 SE20      30.25R
CEDAR CITY     PTCLDY    77  35  21 SW9       30.04R
DELTA          MOCLDY    82  37  19 SW10      29.93S
HANKSVILLE     CLOUDY    84  46  26 SW13G21   29.98R
MILFORD        PTCLDY    83  39  21 SW12      29.97S
MOAB/CYNLANDS  CLOUDY    75  62  64 CALM      29.98R THUNDER
PRICE          CLOUDY    72  52  49 NW5       30.07R
ST GEORGE      CLOUDY    97  45  16 W9G17     29.83R HX  93
KANAB          CLOUDY    66  63  88 CALM      30.12F

$$

REGIONAL REPORTS     COLORADO/ARIZONA

CITY           SKY/WX    TMP DP  RH WIND       PRES   REMARKS
CRAIG, CO      CLOUDY    64  51  62 S15       30.16R
GRAND JUNCTION LGT RAIN  62  59  90 NW16      30.09R
RIFLE          CLOUDY    75  46  35 N7        30.07S
MONTROSE       LGT RAIN  71  53  52 S17       30.12R
CORTEZ         CLEAR     67  54  63 W13G24    30.17R
PAGE, AZ       CLOUDY    77  57  50 CALM      30.04R
GRAND CANYON   CLOUDY    61  57  87 E6        30.20F THUNDER
KINGMAN        CLEAR     91  43  18 S15       29.89F
FLAGSTAFF      CLOUDY    62  60  93 N3        30.25R THUNDER

$$

REGIONAL REPORTS    NEVADA/IDAHO/WYOMING

CITY           SKY/WX    TMP DP  RH WIND       PRES   REMARKS
LAS VEGAS, NV  PTCLDY    97  38  13 SW14      29.72F HX  92
ELY            MOCLDY    79  29  16 W8        30.04S
ELKO           PTCLDY    77  29  17 W13       30.01S
POCATELLO, ID  CLEAR     71  34  25 W14       29.98S
BURLEY         CLEAR     69  35  28 W6        29.97S
EVANSTON, WY   MOCLDY    70  39  32 W10       30.11S
ROCK SPRINGS   CLOUDY    67  46  47 SW9       30.10F
KEMMERER       MOCLDY    68  34  28 SW10G17   30.13R

$$


USA.gov is the U.S. government's official web portal to all federal, state and local government web resources and services.